Weather in Zhovti Vody

Ukraine / Dnipropetrovsk Region     48°20′43″N   33°30′32″E
temp.,
°C
wind,
m/s
gust,
m/s
humid.,
%
clouds,
%
prec.,
mm/h
press.,
hPa
HPBL,
m
15 may, sat
sat1500:00+12ssw310845 0.0 1010186
03:00+11ssw38841 0.0 1011144
06:00+11ssw398810 0.0 1011195
09:00+18ssw58661 0.0 1012563
12:00+21sw67504 0.0 10121710
15:00+23sw574148 0.0 10122450
18:00+20sw48554 0.0 1012220
21:00+16sw346958 0.0 101249
16 may, sun
sun1600:00+13sw22760 0.0 101312
03:00+13sw11817 0.0 101310
06:00+13nne1180100 0.0 101310
09:00+18ene336163 0.0 1013371
12:00+23ene344371 0.0 10121408
15:00+25ene454294 0.0 10102040
18:00+23ne4653100 0.0 1009269
21:00+19nne51266100 0.1 1007255
17 may, mon
mon1700:00+17nne2587100 2.5 1006128
03:00+16nne5993100 6.8 1005191
06:00+16n489311 0.0 1002210
09:00+20ene237297 0.1 1003429
12:00+24ese456449 0.7 10021084
15:00+24sse576249 0.8 10021255
18:00+22sse79660 0.0 10021064
21:00+16se611908 0.0 1004377
18 may, tue
tue1800:00+16sse6991100 0.0 1004579
03:00+15sw6118911 0.3 1004494
06:00+14s389750 0.1 1005303
09:00+18s6879100 0.1 1006544
12:00+20s6964100 0.1 10051190
15:00+21ssw9116796 3.7 10041321
18:00+19sw7107128 1.8 10061154
21:00+14w49885 2.9 1008244
19 may, wed
wed1900:00+11w36890 0.0 1010134
03:00+10wsw35910 0.0 101186
06:00+10wsw24895 0.0 1012103
09:00+16wsw356543 0.0 1012559
12:00+19wsw344696 0.0 10121549
15:00+19sw2353100 0.0 1011837
18:00+17wsw4665100 0.6 1012214
21:00+13ssw4889100 1.5 1014172